N755CP KEYW-KAPF

Flight info

Callsign N755CP
Flight time 0h 41m
Altitude 7000
Route CARNU KARTR
Aircraft B58T/L-SDFGRY/C

Departure

Time 2026-04-23 19:59
Airport Key West International Airport (KEYW)

Arrival

Time 2026-04-23 20:40
Airport Naples Municipal Airport (KAPF)
Time Latitude Longitude Altitude Speed Heading
2026-04-23 19:39 24.55494 -81.76160 6 ft 0 kts
2026-04-23 19:56 24.55495 -81.76160 6 ft 2 kts
2026-04-23 19:56 24.55523 -81.76200 6 ft 11 kts 269°
2026-04-23 19:56 24.55524 -81.76291 6 ft 13 kts 269°
2026-04-23 19:57 24.55523 -81.76384 6 ft 12 kts 270°
2026-04-23 19:57 24.55520 -81.76470 6 ft 11 kts 268°
2026-04-23 19:57 24.55519 -81.76551 6 ft 12 kts 270°
2026-04-23 19:57 24.55524 -81.76629 6 ft 9 kts 296°
2026-04-23 19:58 24.55578 -81.76660 5 ft 10 kts
2026-04-23 19:58 24.55608 -81.76615 5 ft 12 kts 92°
2026-04-23 19:58 24.55609 -81.76397 4 ft 57 kts 89°
2026-04-23 19:58 24.55611 -81.75752 60 ft 102 kts 90°
2026-04-23 19:59 24.55673 -81.74936 359 ft 112 kts 78°
2026-04-23 19:59 24.56083 -81.74172 734 ft 124 kts 50°
2026-04-23 19:59 24.56832 -81.73727 1161 ft 126 kts 23°
2026-04-23 19:59 24.57655 -81.73328 1432 ft 131 kts 39°
2026-04-23 20:00 24.58373 -81.72721 1693 ft 129 kts 46°
2026-04-23 20:00 24.59075 -81.72123 1966 ft 126 kts 46°
2026-04-23 20:00 24.59763 -81.71518 2236 ft 129 kts 39°
2026-04-23 20:00 24.60685 -81.71419 2473 ft 147 kts 345°
2026-04-23 20:01 24.61631 -81.71854 2732 ft 147 kts 344°
2026-04-23 20:01 24.62581 -81.72289 3004 ft 149 kts 338°
2026-04-23 20:01 24.63520 -81.72750 3290 ft 147 kts 341°
2026-04-23 20:01 24.64460 -81.73184 3586 ft 146 kts 342°
2026-04-23 20:02 24.65428 -81.73589 3736 ft 157 kts 344°
2026-04-23 20:02 24.66507 -81.74013 3731 ft 171 kts 345°
2026-04-23 20:02 24.67655 -81.74461 3726 ft 178 kts 344°
2026-04-23 20:02 24.68850 -81.74911 3728 ft 186 kts 345°
2026-04-23 20:03 24.70103 -81.75369 3722 ft 192 kts 345°
2026-04-23 20:03 24.71373 -81.75838 3723 ft 193 kts 345°
2026-04-23 20:03 24.72638 -81.76319 3722 ft 192 kts 345°
2026-04-23 20:03 24.73895 -81.76799 3722 ft 191 kts 344°
2026-04-23 20:04 24.75151 -81.77263 3722 ft 190 kts 345°
2026-04-23 20:04 24.76406 -81.77735 3707 ft 191 kts 345°
2026-04-23 20:04 24.77679 -81.78218 3590 ft 196 kts 344°
2026-04-23 20:04 24.78974 -81.78700 3510 ft 195 kts 345°
2026-04-23 20:05 24.80262 -81.79186 3504 ft 191 kts 344°
2026-04-23 20:05 24.81516 -81.79663 3503 ft 190 kts 345°
2026-04-23 20:05 24.82757 -81.80158 3498 ft 190 kts 343°
2026-04-23 20:05 24.83998 -81.80646 3499 ft 189 kts 343°
2026-04-23 20:06 24.85213 -81.81116 3496 ft 187 kts 344°
2026-04-23 20:06 24.86440 -81.81589 3495 ft 187 kts 344°
2026-04-23 20:06 24.87660 -81.82077 3498 ft 187 kts 343°
2026-04-23 20:06 24.88887 -81.82556 3498 ft 187 kts 344°
2026-04-23 20:07 24.90118 -81.83034 3500 ft 188 kts 343°
2026-04-23 20:07 24.91351 -81.83505 3498 ft 187 kts 347°
2026-04-23 20:07 24.92592 -81.83452 3494 ft 176 kts 30°
2026-04-23 20:07 24.93418 -81.82547 3500 ft 167 kts 65°
2026-04-23 20:08 24.93947 -81.81414 3505 ft 169 kts 57°
2026-04-23 20:08 24.94957 -81.80706 3510 ft 178 kts 24°
2026-04-23 20:08 24.96207 -81.80535 3512 ft 184 kts
2026-04-23 20:08 24.97490 -81.80522 3511 ft 184 kts
2026-04-23 20:09 24.98771 -81.80502 3511 ft 184 kts
2026-04-23 20:09 25.00048 -81.80501 3508 ft 183 kts
2026-04-23 20:09 25.01322 -81.80499 3506 ft 183 kts
2026-04-23 20:09 25.02593 -81.80484 3507 ft 182 kts
2026-04-23 20:10 25.03430 -81.80473 3507 ft 182 kts
2026-04-23 20:10 25.05124 -81.80382 3512 ft 181 kts
2026-04-23 20:10 25.06379 -81.80287 3512 ft 181 kts
2026-04-23 20:10 25.07635 -81.80200 3511 ft 181 kts
2026-04-23 20:11 25.08899 -81.80119 3511 ft 182 kts
2026-04-23 20:11 25.10167 -81.80038 3513 ft 183 kts
2026-04-23 20:11 25.11437 -81.79939 3511 ft 183 kts
2026-04-23 20:11 25.12702 -81.79853 3513 ft 183 kts
2026-04-23 20:12 25.13967 -81.79773 3514 ft 181 kts
2026-04-23 20:12 25.15220 -81.79655 3512 ft 180 kts 10°
2026-04-23 20:12 25.16470 -81.79532 3512 ft 181 kts 10°
2026-04-23 20:12 25.17722 -81.79421 3512 ft 181 kts
2026-04-23 20:13 25.18976 -81.79294 3511 ft 180 kts 10°
2026-04-23 20:13 25.20217 -81.79171 3508 ft 179 kts 10°
2026-04-23 20:13 25.21459 -81.79059 3507 ft 178 kts
2026-04-23 20:13 25.22696 -81.78946 3504 ft 178 kts
2026-04-23 20:14 25.23930 -81.78822 3502 ft 178 kts 10°
2026-04-23 20:14 25.25166 -81.78697 3503 ft 179 kts 10°
2026-04-23 20:14 25.26404 -81.78575 3500 ft 178 kts
2026-04-23 20:14 25.27637 -81.78443 3502 ft 178 kts 10°
2026-04-23 20:15 25.28872 -81.78313 3509 ft 178 kts 11°
2026-04-23 20:15 25.30110 -81.78200 3508 ft 179 kts 10°
2026-04-23 20:15 25.31349 -81.78081 3511 ft 179 kts 10°
2026-04-23 20:15 25.32592 -81.77951 3512 ft 180 kts 10°
2026-04-23 20:16 25.33838 -81.77831 3515 ft 180 kts
2026-04-23 20:16 25.35086 -81.77713 3518 ft 180 kts
2026-04-23 20:16 25.36329 -81.77585 3518 ft 179 kts
2026-04-23 20:16 25.37572 -81.77470 3518 ft 180 kts
2026-04-23 20:17 25.38837 -81.77354 3516 ft 184 kts
2026-04-23 20:17 25.40120 -81.77212 3516 ft 186 kts 11°
2026-04-23 20:17 25.41413 -81.77073 3515 ft 187 kts
2026-04-23 20:17 25.42710 -81.76921 3515 ft 188 kts
2026-04-23 20:18 25.44008 -81.76759 3516 ft 188 kts
2026-04-23 20:18 25.45307 -81.76598 3517 ft 188 kts
2026-04-23 20:18 25.46608 -81.76437 3517 ft 188 kts
2026-04-23 20:18 25.47911 -81.76274 3518 ft 189 kts 10°
2026-04-23 20:19 25.49215 -81.76116 3516 ft 189 kts
2026-04-23 20:19 25.50521 -81.75959 3517 ft 189 kts
2026-04-23 20:19 25.51826 -81.75802 3516 ft 189 kts 10°
2026-04-23 20:19 25.53152 -81.75646 3517 ft 189 kts 10°
2026-04-23 20:20 25.54428 -81.75497 3562 ft 187 kts
2026-04-23 20:20 25.55753 -81.75335 3525 ft 189 kts
2026-04-23 20:20 25.57057 -81.75177 3526 ft 189 kts
2026-04-23 20:20 25.58361 -81.75018 3527 ft 189 kts
2026-04-23 20:21 25.59665 -81.74855 3525 ft 188 kts 10°
2026-04-23 20:21 25.60968 -81.74693 3525 ft 188 kts
2026-04-23 20:21 25.62269 -81.74525 3526 ft 188 kts
2026-04-23 20:21 25.63572 -81.74359 3526 ft 188 kts 10°
2026-04-23 20:22 25.64861 -81.74198 3527 ft 190 kts 10°
2026-04-23 20:22 25.66179 -81.74034 3530 ft 191 kts
2026-04-23 20:22 25.67527 -81.73863 3527 ft 193 kts 10°
2026-04-23 20:22 25.68867 -81.73693 3525 ft 194 kts 10°
2026-04-23 20:23 25.70195 -81.73526 3527 ft 195 kts
2026-04-23 20:23 25.71544 -81.73356 3519 ft 196 kts
2026-04-23 20:23 25.72907 -81.73183 3522 ft 198 kts
2026-04-23 20:23 25.74291 -81.73004 3519 ft 199 kts
2026-04-23 20:24 25.75663 -81.72825 3517 ft 198 kts
2026-04-23 20:24 25.77028 -81.72648 3517 ft 198 kts
2026-04-23 20:24 25.78389 -81.72475 3522 ft 196 kts
2026-04-23 20:24 25.79744 -81.72303 3520 ft 196 kts
2026-04-23 20:25 25.81094 -81.72129 3516 ft 195 kts 10°
2026-04-23 20:25 25.82424 -81.71879 3512 ft 192 kts 24°
2026-04-23 20:25 25.83589 -81.71186 3458 ft 192 kts 30°
2026-04-23 20:25 25.84841 -81.70607 3340 ft 198 kts 22°
2026-04-23 20:26 25.86156 -81.70124 3221 ft 199 kts 21°
2026-04-23 20:26 25.87466 -81.69645 3098 ft 198 kts 21°
2026-04-23 20:26 25.88765 -81.69159 3017 ft 195 kts 21°
2026-04-23 20:26 25.90030 -81.68684 3012 ft 190 kts 22°
2026-04-23 20:27 25.91271 -81.68216 3006 ft 187 kts 22°
2026-04-23 20:27 25.92501 -81.67752 3002 ft 186 kts 21°
2026-04-23 20:27 25.93726 -81.67291 3002 ft 185 kts 22°
2026-04-23 20:27 25.94945 -81.66833 3003 ft 184 kts 22°
2026-04-23 20:28 25.96160 -81.66376 3002 ft 184 kts 22°
2026-04-23 20:28 25.97374 -81.65918 3002 ft 184 kts 22°
2026-04-23 20:28 25.98592 -81.65460 3005 ft 185 kts 22°
2026-04-23 20:28 25.99814 -81.64998 3007 ft 186 kts 22°
2026-04-23 20:29 26.01041 -81.64536 3006 ft 186 kts 22°
2026-04-23 20:29 26.02265 -81.64076 3003 ft 185 kts 22°
2026-04-23 20:29 26.03481 -81.63617 3005 ft 184 kts 21°
2026-04-23 20:29 26.04690 -81.63162 3003 ft 183 kts 21°
2026-04-23 20:30 26.05889 -81.62710 3003 ft 181 kts 22°
2026-04-23 20:30 26.08252 -81.61818 3005 ft 178 kts 21°
2026-04-23 20:30 26.09415 -81.61380 3005 ft 175 kts 22°
2026-04-23 20:31 26.10552 -81.60951 3003 ft 171 kts 21°
2026-04-23 20:31 26.11672 -81.60528 3002 ft 169 kts 21°
2026-04-23 20:31 26.12774 -81.60112 3005 ft 166 kts 22°
2026-04-23 20:31 26.13870 -81.59698 3006 ft 166 kts 21°
2026-04-23 20:32 26.14963 -81.59285 3005 ft 165 kts 21°
2026-04-23 20:32 26.16051 -81.58874 3006 ft 165 kts 22°
2026-04-23 20:32 26.17138 -81.58463 3005 ft 164 kts 21°
2026-04-23 20:32 26.18216 -81.58056 3004 ft 163 kts 21°
2026-04-23 20:33 26.19291 -81.57649 3008 ft 164 kts 22°
2026-04-23 20:33 26.20026 -81.57388 3007 ft 165 kts 16°
2026-04-23 20:33 26.21176 -81.57436 3004 ft 169 kts 345°
2026-04-23 20:33 26.22192 -81.58083 3001 ft 169 kts 316°
2026-04-23 20:34 26.22999 -81.59009 3004 ft 165 kts 315°
2026-04-23 20:34 26.23801 -81.59918 3004 ft 165 kts 315°
2026-04-23 20:34 26.24607 -81.60830 3005 ft 164 kts 315°
2026-04-23 20:34 26.25398 -81.61730 3001 ft 162 kts 315°
2026-04-23 20:35 26.26170 -81.62647 3003 ft 163 kts 307°
2026-04-23 20:35 26.26576 -81.63779 3010 ft 156 kts 277°
2026-04-23 20:35 26.26503 -81.64945 3006 ft 151 kts 250°
2026-04-23 20:35 26.26014 -81.65932 3009 ft 141 kts 224°
2026-04-23 20:36 26.25316 -81.66687 2915 ft 142 kts 219°
2026-04-23 20:36 26.24596 -81.67472 2733 ft 146 kts 220°
2026-04-23 20:36 26.23866 -81.68266 2543 ft 147 kts 220°
2026-04-23 20:36 26.23141 -81.69051 2352 ft 144 kts 221°
2026-04-23 20:37 26.22441 -81.69808 2141 ft 136 kts 222°
2026-04-23 20:37 26.21768 -81.70534 1903 ft 133 kts 221°
2026-04-23 20:37 26.21113 -81.71250 1706 ft 130 kts 223°
2026-04-23 20:37 26.20485 -81.71946 1546 ft 127 kts 222°
2026-04-23 20:38 26.19845 -81.72612 1391 ft 126 kts 221°
2026-04-23 20:38 26.19222 -81.73288 1224 ft 125 kts 223°
2026-04-23 20:38 26.18603 -81.73968 1020 ft 126 kts 222°
2026-04-23 20:38 26.17962 -81.74638 806 ft 124 kts 223°
2026-04-23 20:39 26.17347 -81.75303 564 ft 123 kts 228°
2026-04-23 20:39 26.16732 -81.75976 352 ft 124 kts 226°
2026-04-23 20:39 26.16124 -81.76622 143 ft 119 kts 226°
2026-04-23 20:39 26.15543 -81.77252 30 ft 111 kts 227°
2026-04-23 20:40 26.15076 -81.77758 16 ft 70 kts 224°
2026-04-23 20:40 26.14907 -81.77896 17 ft 11 kts 131°
2026-04-23 20:40 26.14846 -81.77882 16 ft 8 kts 137°
2026-04-23 20:40 26.14859 -81.77827 15 ft 1 kts 42°
2026-04-23 20:41 26.14863 -81.77823 15 ft 4 kts 37°
2026-04-23 20:41 26.14884 -81.77768 14 ft 12 kts 123°
2026-04-23 20:42 26.14854 -81.77731 13 ft 0 kts 132°